2022-098F (53449 NORAD) Tracking and Keplerian Element Data

This shows tracking and keplerian element data for the satellite.

Feedback or suggestion? Click here.




ElementValue
Catalog53449
Name2022-098F
Epoch Orbit722
Epoch Day270.19344093
Epoch Year2022
RAAN5.6581
Inclination97.5283
Eccentricity0.0013247
Argument of Perigee101.6438
Mean Anonmoly346.6991
Mean Motion15.09513614
Decay Rate4.189E-05
L11 53449U 22098F 22270.19344093 .00004189 00000+0 26471-3 0 9996
L22 53449 97.5283 5.6581 0013247 101.6438 346.6991 15.09513614 7220

Live tracking and technical data element details for 2022-098F (NORAD 53449). 2022-098F can be tracked NOW for your location showing map with azimuth and elevation plus other details from your city location.

Track the satellite on the map from your city or location and see movement details for azimuth, elevation, latitude, longitude, range, height, and movement on the map or in text.







IsCatalogInMostPopularTable: catalog: 53449, numindb: 2
Update: records affected: 1



GetName: 53449 2022-098F

Hit Count: updated at: Wed, 28 Sep 2022 21:49:21 GMT